Weather History for KFWA - April, 2014

Change the Weather History Date:

Saturday, April 19, 2014

  Actual Average Record
Temperature  
Mean Temperature 50 °F 51 °F  
Max Temperature 61 °F 63 °F 86 °F (1985)
Min Temperature 38 °F 40 °F 21 °F (1983)
Degree Days  
Heating Degree Days 15 14  
Month to date heating degree days 321 327  
Since 1 July heating degree days 6641 5751  
Cooling Degree Days 0 0  
Month to date cooling degree days 1 0  
Year to date cooling degree days 1 0  
Moisture  
Dew Point 32 °F    
Average Humidity 57    
Maximum Humidity 85    
Minimum Humidity 29    
Precipitation  
Precipitation 0.00 in 0.13 in 1.54 in (1970)
Month to date precipitation 3.05 2.29  
Year to date precipitation 11.03 9.30  
Snow  
Snow 0.00 in 0.00 in 0.30 in (1969)
Month to date snowfall 1.1 0.9  
Since 1 July snowfall 74.7 33.4  
Snow Depth 0.00 in    
Sea Level Pressure  
Sea Level Pressure 30.36 in    
Wind  
Wind Speed 12 mph (ENE)    
Max Wind Speed 20 mph    
Max Gust Speed 25 mph    
Visibility 9 miles    
Events      
T = Trace of Precipitation, MM = Missing Value Source: NWS Daily Summary

Daily Weather History Graph

Daily Weather History Graph

Search for Another Location

Airport or City:

Trip Planner

Search our weather history database for the weather conditions in past years. The results will help you decide how hot, cold, wet, or windy it might be!

Date:

Astronomy

Apr. 19, 2014 Rise Set
Actual Time 6:55 AM EDT 8:24 PM EDT
Civil Twilight 6:26 AM EDT 8:53 PM EDT
Nautical Twilight 5:52 AM EDT 9:28 PM EDT
Astronomical Twilight 5:15 AM EDT 10:05 PM EDT
Moon 12:09 AM EDT (4/19) 10:12 AM EDT (4/19)
Length of Visible Light 14h 26m
Length of Day
13h 29m
Waning Gibbous, 79% of the Moon is Illuminated
Apr 19
Waning Gibbous
Apr 22
Last Quarter
Apr 29
New
May 6
First Quarter
May 14
Full

Hourly Weather History & Observations

Time (EDT) Temp. Windchill Dew Point Humidity Pressure Visibility Wind Dir Wind Speed Gust Speed Precip Events Conditions
12:54 AM 41.0 °F 35.8 °F 34.0 °F 76% 30.33 in 10.0 mi North 8.1 mph - N/A   Clear
1:54 AM 41.0 °F 35.8 °F 34.0 °F 76% 30.33 in 10.0 mi NNW 8.1 mph - N/A   Clear
2:54 AM 39.0 °F 34.0 °F 33.1 °F 79% 30.32 in 10.0 mi North 6.9 mph - N/A   Clear
3:54 AM 39.0 °F 34.8 °F 32.0 °F 76% 30.33 in 10.0 mi North 5.8 mph - N/A   Clear
4:54 AM 39.0 °F 34.0 °F 32.0 °F 76% 30.33 in 10.0 mi NE 6.9 mph - N/A   Clear
5:54 AM 39.9 °F 32.5 °F 36.0 °F 86% 30.35 in 7.0 mi ENE 12.7 mph - N/A   Clear
6:10 AM 39.9 °F 32.1 °F 37.0 °F 89% 30.35 in 7.0 mi East 13.8 mph - N/A   Partly Cloudy
6:54 AM 39.0 °F 31.8 °F 35.1 °F 86% 30.37 in 7.0 mi ENE 11.5 mph - N/A   Partly Cloudy
7:54 AM 39.2 °F 31.2 °F 33.8 °F 81% 30.39 in 7.0 mi ENE 13.8 mph - N/A   Clear
8:54 AM 39.9 °F 32.1 °F 34.0 °F 79% 30.43 in 7.0 mi ENE 13.8 mph - N/A   Partly Cloudy
9:54 AM 44.1 °F 37.1 °F 34.0 °F 68% 30.42 in 8.0 mi ENE 15.0 mph - N/A   Clear
10:54 AM 48.0 °F - 35.1 °F 61% 30.42 in 10.0 mi East 13.8 mph - N/A   Clear
11:54 AM 51.1 °F - 36.0 °F 56% 30.42 in 10.0 mi East 16.1 mph 24.2 mph N/A   Clear
12:54 PM 54.0 °F - 37.0 °F 53% 30.41 in 10.0 mi East 16.1 mph 21.9 mph N/A   Partly Cloudy
1:54 PM 57.0 °F - 37.0 °F 47% 30.38 in 10.0 mi East 17.3 mph 25.3 mph N/A   Partly Cloudy
2:54 PM 59.0 °F - 37.0 °F 44% 30.38 in 10.0 mi East 11.5 mph 21.9 mph N/A   Partly Cloudy
3:54 PM 60.1 °F - 32.0 °F 35% 30.35 in 10.0 mi ENE 17.3 mph 23.0 mph N/A   Scattered Clouds
4:54 PM 60.1 °F - 30.9 °F 33% 30.32 in 10.0 mi East 15.0 mph 24.2 mph N/A   Scattered Clouds
5:54 PM 60.1 °F - 28.9 °F 31% 30.31 in 10.0 mi East 12.7 mph - N/A   Scattered Clouds
6:54 PM 57.9 °F - 28.0 °F 32% 30.31 in 10.0 mi East 13.8 mph - N/A   Scattered Clouds
7:54 PM 54.0 °F - 28.0 °F 37% 30.32 in 10.0 mi East 10.4 mph - N/A   Scattered Clouds
8:54 PM 50.0 °F - 27.0 °F 41% 30.33 in 10.0 mi ENE 12.7 mph - N/A   Scattered Clouds
9:54 PM 46.0 °F 41.0 °F 24.1 °F 42% 30.33 in 10.0 mi East 10.4 mph - N/A   Scattered Clouds
10:54 PM 44.1 °F 38.6 °F 23.0 °F 43% 30.33 in 10.0 mi East 10.4 mph - N/A   Partly Cloudy
11:54 PM 41.0 °F 35.8 °F 25.0 °F 53% 30.33 in 10.0 mi ENE 8.1 mph - N/A   Partly Cloudy